This is the latest recevied weather packets stored in our database for station/object IN3APK-3. If no packets are shown the sender has not sent any weather packets the latest 10 day(s).
| Time | Temp. | Humidity | Pressure | Rain* | Wind** | Luminosity | Snow |
|---|---|---|---|---|---|---|---|
| 1777631541 | 17.78° C | 46% | 1019.7 hPa | - | - | - | - |
| 1777630888 | 17.22° C | 47% | 1019.9 hPa | - | - | - | - |
| 1777630235 | 15.56° C | 49% | 1019.9 hPa | - | - | - | - |
| 1777629583 | 14.44° C | 49% | 1020.1 hPa | - | - | - | - |
| 1777628931 | 13.89° C | 50% | 1020.2 hPa | - | - | - | - |
| 1777628278 | 13.33° C | 51% | 1020.3 hPa | - | - | - | - |
| 1777627625 | 12.22° C | 52% | 1020.4 hPa | - | - | - | - |
| 1777626973 | 12.22° C | 52% | 1020.4 hPa | - | - | - | - |
| 1777626321 | 11.67° C | 52% | 1020.3 hPa | - | - | - | - |
| 1777625668 | 11.67° C | 52% | 1020.4 hPa | - | - | - | - |
| 1777625016 | 11.11° C | 53% | 1020.5 hPa | - | - | - | - |
| 1777624363 | 10.56° C | 53% | 1020.4 hPa | - | - | - | - |
| 1777623711 | 10.56° C | 53% | 1020.5 hPa | - | - | - | - |
| 1777623059 | 10° C | 53% | 1020.5 hPa | - | - | - | - |
| 1777622407 | 9.44° C | 53% | 1020.6 hPa | - | - | - | - |
| 1777621754 | 9.44° C | 53% | 1020.6 hPa | - | - | - | - |
| 1777621102 | 8.89° C | 53% | 1020.6 hPa | - | - | - | - |
| 1777620449 | 8.89° C | 54% | 1020.7 hPa | - | - | - | - |
| 1777619797 | 8.33° C | 54% | 1020.7 hPa | - | - | - | - |
| 1777617188 | 8.33° C | 53% | 1020.6 hPa | - | - | - | - |
| 1777616536 | 8.33° C | 53% | 1020.4 hPa | - | - | - | - |
| 1777615884 | 8.33° C | 53% | 1020.4 hPa | - | - | - | - |
| 1777615232 | 8.89° C | 52% | 1020.3 hPa | - | - | - | - |
| 1777614580 | 8.89° C | 52% | 1020.2 hPa | - | - | - | - |
| 1777613927 | 8.89° C | 52% | 1020.2 hPa | - | - | - | - |
* Rain since midnight (hover to see other rain measurements)
** Current wind speed in m/s (hover to see current wind gust speed)